�������l�o���
Date,Time,MP-1(��Sv/h),MP-2(��Sv/h),MP-3(��Sv/h),MP-4(��Sv/h),MP-5(��Sv/h),MP-6(��Sv/h),MP-7(��Sv/h),MP-8(��Sv/h),����,����(m/s),���J
2023/07/20,00:00,0.504,0.770,0.475,0.933,0.679,0.316,0.558,0.529,�k��,3.2,��
2023/07/20,00:10,0.505,0.768,0.475,0.934,0.680,0.317,0.557,0.527,�k��,3.7,��
2023/07/20,00:20,0.505,0.770,0.476,0.934,0.681,0.316,0.559,0.528,�k��,3.8,��
2023/07/20,00:30,0.505,0.770,0.475,0.933,0.682,0.315,0.558,0.527,�k��,5.7,��
2023/07/20,00:40,0.506,0.771,0.476,0.935,0.682,0.316,0.559,0.528,�k�k��,7.4,��
2023/07/20,00:50,0.507,0.774,0.478,0.936,0.681,0.316,0.560,0.529,�k�k��,6.4,��
2023/07/20,01:00,0.506,0.771,0.476,0.934,0.682,0.315,0.559,0.527,�k�k��,7.2,��
2023/07/20,01:10,0.510,0.771,0.477,0.933,0.682,0.315,0.559,0.529,�k�k��,7.8,��
2023/07/20,01:20,0.509,0.772,0.477,0.936,0.683,0.317,0.560,0.529,�k�k��,8.4,��
2023/07/20,01:30,0.507,0.774,0.476,0.937,0.684,0.317,0.561,0.528,�k�k��,7.8,��
2023/07/20,01:40,0.507,0.771,0.475,0.935,0.682,0.316,0.559,0.528,�k�k��,6.5,��
2023/07/20,01:50,0.507,0.773,0.477,0.937,0.683,0.316,0.559,0.528,�k��,3.5,��
2023/07/20,02:00,0.506,0.773,0.475,0.935,0.683,0.316,0.559,0.528,�k�k��,5.6,��
2023/07/20,02:10,0.508,0.774,0.477,0.936,0.681,0.317,0.560,0.529,�k��,4.4,��
2023/07/20,02:20,0.507,0.773,0.476,0.937,0.681,0.317,0.560,0.529,�k��,4.5,��
2023/07/20,02:30,0.507,0.773,0.477,0.937,0.683,0.315,0.559,0.528,�k�k��,6.3,��
2023/07/20,02:40,0.507,0.772,0.476,0.934,0.682,0.316,0.560,0.527,�k�k��,6.4,��
2023/07/20,02:50,0.508,0.774,0.478,0.936,0.681,0.317,0.560,0.529,�k�k��,6.3,��
2023/07/20,03:00,0.509,0.774,0.477,0.937,0.681,0.317,0.560,0.528,�k�k��,5.3,��
2023/07/20,03:10,0.507,0.774,0.476,0.935,0.681,0.316,0.559,0.527,�k�k��,6.2,��
2023/07/20,03:20,0.508,0.774,0.475,0.936,0.683,0.317,0.561,0.528,�k�k��,6.1,��
2023/07/20,03:30,0.506,0.774,0.478,0.935,0.682,0.317,0.559,0.529,�k�k��,5.9,��
2023/07/20,03:40,0.507,0.773,0.476,0.936,0.684,0.319,0.561,0.528,�k�k��,5.3,��
2023/07/20,03:50,0.508,0.774,0.477,0.937,0.683,0.317,0.561,0.529,�k�k��,3.7,��
2023/07/20,04:00,0.507,0.774,0.477,0.935,0.682,0.318,0.561,0.528,�k�k��,2.8,��
2023/07/20,04:10,0.508,0.776,0.477,0.939,0.684,0.317,0.559,0.528,�k�k��,3.2,��
2023/07/20,04:20,0.508,0.773,0.475,0.939,0.683,0.317,0.560,0.529,�k�k��,4.4,��
2023/07/20,04:30,0.508,0.774,0.477,0.936,0.684,0.317,0.560,0.528,�k�k��,3.4,��
2023/07/20,04:40,0.507,0.773,0.477,0.938,0.682,0.318,0.561,0.529,�k�k��,3.8,��
2023/07/20,04:50,0.508,0.772,0.477,0.937,0.683,0.318,0.560,0.527,�k�k��,4.5,��
2023/07/20,05:00,0.510,0.772,0.478,0.937,0.683,0.318,0.558,0.528,�k�k��,4.1,��
2023/07/20,05:10,0.508,0.775,0.476,0.938,0.682,0.318,0.561,0.528,�k�k��,4.6,��
2023/07/20,05:20,0.508,0.773,0.478,0.936,0.685,0.318,0.561,0.529,�k�k��,4.8,��
2023/07/20,05:30,0.508,0.773,0.477,0.939,0.684,0.319,0.562,0.529,�k�k��,5.3,��
2023/07/20,05:40,0.509,0.774,0.478,0.938,0.684,0.318,0.561,0.529,�k,5.0,��
2023/07/20,05:50,0.508,0.774,0.477,0.938,0.685,0.317,0.561,0.529,�k�k��,4.2,��
2023/07/20,06:00,0.507,0.775,0.476,0.938,0.685,0.317,0.562,0.529,�k�k��,3.7,��
2023/07/20,06:10,0.507,0.775,0.475,0.939,0.682,0.318,0.563,0.529,�k�k��,4.0,��
2023/07/20,06:20,0.508,0.775,0.478,0.936,0.682,0.318,0.562,0.528,�k�k��,3.9,��
2023/07/20,06:30,0.507,0.773,0.476,0.938,0.683,0.317,0.562,0.529,�k��,4.7,��
2023/07/20,06:40,0.508,0.771,0.477,0.937,0.683,0.318,0.564,0.529,�k��,5.0,��
2023/07/20,06:50,0.508,0.774,0.477,0.938,0.684,0.318,0.561,0.529,�k��,5.0,��
2023/07/20,07:00,0.506,0.772,0.478,0.936,0.684,0.319,0.561,0.529,�k��,5.3,��
2023/07/20,07:10,0.509,0.773,0.477,0.939,0.682,0.320,0.560,0.530,�k��,4.0,��
2023/07/20,07:20,0.507,0.774,0.479,0.939,0.685,0.318,0.561,0.529,�k�k��,5.0,��
2023/07/20,07:30,0.509,0.775,0.476,0.939,0.685,0.317,0.562,0.531,�k�k��,5.1,��
2023/07/20,07:40,0.508,0.774,0.478,0.940,0.683,0.317,0.560,0.531,�k�k��,6.6,��
2023/07/20,07:50,0.509,0.776,0.479,0.939,0.683,0.318,0.560,0.528,�k,5.8,��
2023/07/20,08:00,0.511,0.776,0.479,0.940,0.687,0.318,0.563,0.528,�k�k��,7.2,��
2023/07/20,08:10,0.510,0.776,0.479,0.939,0.685,0.321,0.561,0.527,�k�k��,7.0,��
2023/07/20,08:20,0.510,0.777,0.480,0.940,0.685,0.318,0.562,0.528,�k�k��,8.4,��
2023/07/20,08:30,0.511,0.775,0.480,0.940,0.686,0.319,0.560,0.528,�k�k��,8.4,��
2023/07/20,08:40,0.512,0.775,0.479,0.939,0.685,0.319,0.562,0.529,�k�k��,7.6,��
2023/07/20,08:50,0.511,0.774,0.478,0.940,0.687,0.318,0.562,0.527,�k�k��,4.7,��
2023/07/20,09:00,0.511,0.780,0.478,0.941,0.686,0.318,0.563,0.530,�k,7.8,��
2023/07/20,09:10,0.513,0.778,0.479,0.942,0.686,0.318,0.564,0.530,�k,7.8,��
2023/07/20,09:20,0.511,0.780,0.479,0.940,0.688,0.318,0.562,0.528,�k,8.0,��
2023/07/20,09:30,0.513,0.780,0.482,0.940,0.686,0.319,0.564,0.530,�k,7.3,��
2023/07/20,09:40,0.515,0.778,0.480,0.943,0.687,0.318,0.565,0.530,�k�k��,6.0,��
2023/07/20,09:50,0.512,0.779,0.481,0.941,0.688,0.319,0.564,0.529,�k,6.6,��
2023/07/20,10:00,0.514,0.779,0.481,0.942,0.686,0.317,0.563,0.529,�k�k��,7.0,��
2023/07/20,10:10,0.512,0.780,0.481,0.942,0.688,0.317,0.561,0.529,�k�k��,7.0,��
2023/07/20,10:20,0.513,0.780,0.480,0.943,0.689,0.317,0.562,0.529,�k�k��,8.3,��
2023/07/20,10:30,0.512,0.782,0.481,0.940,0.690,0.318,0.562,0.529,�k��,8.0,��
2023/07/20,10:40,0.514,0.782,0.481,0.942,0.688,0.319,0.562,0.530,�k��,6.9,��
2023/07/20,10:50,0.514,0.784,0.482,0.942,0.691,0.319,0.562,0.531,�k��,7.1,��
2023/07/20,11:00,0.514,0.784,0.483,0.943,0.689,0.320,0.561,0.529,�k��,7.3,��
2023/07/20,11:10,0.516,0.782,0.482,0.942,0.692,0.318,0.564,0.531,�k��,6.4,��
2023/07/20,11:20,0.514,0.782,0.482,0.941,0.691,0.318,0.562,0.530,�k��,5.5,��
2023/07/20,11:30,0.514,0.784,0.483,0.939,0.692,0.319,0.562,0.529,�k��,4.9,��
2023/07/20,11:40,0.513,0.784,0.483,0.940,0.691,0.318,0.562,0.530,�k��,4.1,��
2023/07/20,11:50,0.516,0.786,0.485,0.942,0.693,0.318,0.563,0.530,�k�k��,4.0,��
2023/07/20,12:00,0.516,0.786,0.483,0.942,0.694,0.318,0.563,0.530,�k�k��,4.4,��
2023/07/20,12:10,0.515,0.787,0.484,0.943,0.693,0.318,0.563,0.530,�k,5.0,��
2023/07/20,12:20,0.516,0.787,0.486,0.943,0.694,0.319,0.563,0.530,�k�k��,4.6,��
2023/07/20,12:30,0.517,0.787,0.484,0.941,0.694,0.318,0.563,0.530,�k�k��,3.5,��
2023/07/20,12:40,0.515,0.788,0.483,0.943,0.694,0.319,0.563,0.529,�k,4.3,��
2023/07/20,12:50,0.516,0.788,0.485,0.943,0.695,0.318,0.564,0.530,�k�k��,4.3,��
2023/07/20,13:00,0.518,0.788,0.484,0.944,0.695,0.318,0.564,0.530,�k��,4.1,��
2023/07/20,13:10,0.516,0.789,0.483,0.943,0.696,0.319,0.564,0.531,�k�k��,4.0,��
2023/07/20,13:20,0.517,0.787,0.485,0.943,0.695,0.319,0.563,0.531,�k�k��,3.5,��
2023/07/20,13:30,0.517,0.788,0.484,0.944,0.695,0.321,0.563,0.530,�k�k��,3.9,��
2023/07/20,13:40,0.516,0.788,0.484,0.943,0.695,0.318,0.563,0.531,�k�k��,3.9,��
2023/07/20,13:50,0.519,0.789,0.484,0.945,0.695,0.320,0.564,0.531,�k��,3.3,��
2023/07/20,14:00,0.516,0.788,0.483,0.943,0.696,0.321,0.563,0.531,�k��,3.2,��
2023/07/20,14:10,0.517,0.788,0.484,0.942,0.695,0.319,0.563,0.529,�k,3.1,��
2023/07/20,14:20,0.517,0.789,0.484,0.943,0.695,0.319,0.563,0.530,�k,2.6,��
2023/07/20,14:30,0.519,0.789,0.485,0.946,0.696,0.321,0.563,0.529,�k�k��,3.4,��
2023/07/20,14:40,0.516,0.789,0.485,0.946,0.695,0.319,0.564,0.529,�k,3.7,��
2023/07/20,14:50,0.517,0.790,0.486,0.944,0.695,0.319,0.564,0.531,�k,2.6,��
2023/07/20,15:00,0.517,0.787,0.486,0.942,0.698,0.318,0.563,0.530,�k,3.0,��
2023/07/20,15:10,0.518,0.788,0.484,0.946,0.697,0.320,0.564,0.531,�k�k��,3.2,��
2023/07/20,15:20,0.516,0.790,0.485,0.945,0.696,0.321,0.563,0.531,�k�k��,3.4,��
2023/07/20,15:30,0.517,0.791,0.485,0.944,0.695,0.321,0.563,0.531,�k�k��,3.9,��
2023/07/20,15:40,0.518,0.792,0.486,0.947,0.698,0.320,0.564,0.531,�k�k��,2.9,��
2023/07/20,15:50,0.516,0.792,0.486,0.946,0.696,0.320,0.564,0.531,�k�k��,2.0,��
2023/07/20,16:00,0.518,0.790,0.486,0.947,0.699,0.320,0.564,0.530,�k�k��,2.0,��
2023/07/20,16:10,0.519,0.792,0.484,0.947,0.697,0.319,0.565,0.529,�k�k��,2.0,��
2023/07/20,16:20,0.517,0.791,0.485,0.947,0.699,0.319,0.564,0.530,�k�k��,2.0,��
2023/07/20,16:30,0.518,0.790,0.485,0.946,0.697,0.319,0.564,0.532,�k,2.5,��
2023/07/20,16:40,0.518,0.791,0.485,0.949,0.697,0.320,0.565,0.529,�k,3.1,��
2023/07/20,16:50,0.517,0.793,0.485,0.946,0.697,0.319,0.563,0.531,�k,3.3,��
2023/07/20,17:00,0.519,0.792,0.484,0.948,0.698,0.320,0.565,0.529,�k,3.7,��
2023/07/20,17:10,0.517,0.792,0.487,0.948,0.698,0.319,0.562,0.530,�k,3.6,��
2023/07/20,17:20,0.516,0.791,0.485,0.948,0.698,0.320,0.564,0.530,�k,4.2,��
2023/07/20,17:30,0.518,0.791,0.485,0.947,0.699,0.322,0.564,0.530,�k�k��,4.4,��
2023/07/20,17:40,0.519,0.791,0.486,0.946,0.699,0.321,0.563,0.530,�k,4.6,��
2023/07/20,17:50,0.518,0.791,0.486,0.947,0.699,0.320,0.563,0.531,�k,4.7,��
2023/07/20,18:00,0.517,0.790,0.485,0.949,0.700,0.321,0.562,0.531,�k,3.8,��
2023/07/20,18:10,0.516,0.791,0.485,0.948,0.700,0.321,0.563,0.533,�k,4.2,��
2023/07/20,18:20,0.516,0.794,0.482,0.947,0.700,0.320,0.563,0.532,�k,4.3,��
2023/07/20,18:30,0.517,0.790,0.486,0.950,0.699,0.319,0.562,0.531,�k�k��,3.7,��
2023/07/20,18:40,0.518,0.792,0.486,0.951,0.700,0.320,0.564,0.532,�k,4.1,��
2023/07/20,18:50,0.517,0.793,0.486,0.951,0.701,0.321,0.563,0.533,�k,3.8,��
2023/07/20,19:00,0.517,0.793,0.486,0.950,0.699,0.321,0.562,0.533,�k,3.1,��
2023/07/20,19:10,0.517,0.793,0.486,0.951,0.697,0.320,0.564,0.534,�k,3.1,��
2023/07/20,19:20,0.518,0.794,0.486,0.951,0.700,0.320,0.565,0.532,�k,3.3,��
2023/07/20,19:30,0.518,0.793,0.486,0.953,0.698,0.320,0.565,0.531,�k,2.8,��
2023/07/20,19:40,0.518,0.793,0.486,0.950,0.699,0.320,0.564,0.532,�k,2.9,��
2023/07/20,19:50,0.518,0.793,0.487,0.952,0.698,0.321,0.564,0.532,�k,3.0,��
2023/07/20,20:00,0.518,0.792,0.487,0.951,0.700,0.319,0.564,0.532,�k,3.4,��
2023/07/20,20:10,0.517,0.794,0.487,0.950,0.698,0.320,0.565,0.533,�k,2.6,��
2023/07/20,20:20,0.518,0.793,0.488,0.952,0.698,0.320,0.563,0.531,�k�k��,2.6,��
2023/07/20,20:30,0.518,0.793,0.488,0.951,0.699,0.320,0.564,0.533,�k�k��,2.8,��
2023/07/20,20:40,0.517,0.795,0.485,0.951,0.700,0.320,0.564,0.532,�k,2.5,��
2023/07/20,20:50,0.518,0.793,0.487,0.953,0.698,0.321,0.564,0.531,�k�k��,3.2,��
2023/07/20,21:00,0.518,0.794,0.489,0.948,0.700,0.321,0.564,0.532,�k,3.1,��
2023/07/20,21:10,0.520,0.792,0.486,0.950,0.701,0.320,0.564,0.533,�k,3.3,��
2023/07/20,21:20,0.518,0.791,0.487,0.952,0.700,0.318,0.565,0.533,�k�k��,2.9,��
2023/07/20,21:30,0.520,0.796,0.487,0.951,0.700,0.319,0.565,0.531,�k�k��,3.0,��
2023/07/20,21:40,0.518,0.794,0.486,0.952,0.700,0.320,0.565,0.532,�k,3.1,��
2023/07/20,21:50,0.517,0.792,0.485,0.951,0.699,0.321,0.563,0.532,�k,2.8,��
2023/07/20,22:00,0.518,0.795,0.488,0.950,0.699,0.320,0.567,0.531,�k�k��,2.5,��
2023/07/20,22:10,0.518,0.792,0.487,0.952,0.698,0.321,0.563,0.532,�k�k��,2.3,��
2023/07/20,22:20,0.519,0.794,0.488,0.953,0.699,0.320,0.564,0.533,�k��,3.2,��
2023/07/20,22:30,0.519,0.795,0.486,0.952,0.699,0.319,0.565,0.532,�k��,2.8,��
2023/07/20,22:40,0.518,0.795,0.487,0.952,0.700,0.320,0.565,0.532,�k��,3.5,��
2023/07/20,22:50,0.518,0.791,0.487,0.951,0.699,0.320,0.564,0.532,�k��,3.4,��
2023/07/20,23:00,0.517,0.794,0.487,0.952,0.699,0.320,0.565,0.532,�k��,2.0,��
2023/07/20,23:10,0.518,0.794,0.488,0.951,0.700,0.321,0.566,0.533,�k��,2.9,��
2023/07/20,23:20,0.518,0.796,0.487,0.951,0.700,0.320,0.565,0.532,�k�k��,2.9,��
2023/07/20,23:30,0.518,0.796,0.487,0.952,0.699,0.320,0.565,0.532,�k�k��,2.6,��
2023/07/20,23:40,0.521,0.795,0.487,0.948,0.698,0.320,0.565,0.532,�k�k��,2.8,��
2023/07/20,23:50,0.518,0.794,0.487,0.951,0.700,0.319,0.565,0.533,�k�k��,3.3,��
